INTELSAT 33E DEB, 64395

Orbit data source: Space-Track

INTELSAT 33E DEB, 64395 is space debris in GEO originally from a launch on Wed, 24 Aug 2016 UTC launched from the French Guiana (FRGUI). Debris objects in space refer to the collection of defunct objects orbiting the Earth. Examples of debris include non-operational satellites, rocket bodies, and fragments generated from explosions, collisions, or faulty payload assembly.

Not visible in the next 10 days
Identifier
64395, 2016-053Z
Orbit
GEO
Country
Flag of USUS / ITSO
Related business
Manufacturer
Boeing/ES
Mission
Spacecraft
Bus & Motor
Unknown
Mass
Unknown
Launch date (UTC)
Icon of a cake. It is the launch day of the satellite!2016-08-24 (10 years ago)
Launch vehicle
Unknown
Launch site
French Guiana (FRGUI)
Object type
Payload
Rocket body
Debris
Shape & HBR
Unknown shape, 1.1 m
Radar Cross Section
RCS unknown

Expand to show TLE details & history
Last TLE update: 2 days ago

TLE from 2 days ago
0 INTELSAT 33E DEB
1 64395U 16053Z   26234.20093914  .00000069  00000-0  00000-0 0  9992
2 64395   2.5246 108.5209 0035406  83.6352 276.7977  0.99819137  6589
Epoch: 2026-08-22T04:49Z
TLE epoch observation values (Epoch: 2026-08-22T04:49:21.141Z)
Latitude
Longitude
65.70177°
Altitude
35,895.615 km
Speed
3.071 km/s
True Right ascension
07h 14m 13s
True Declination
0° 00' 00"
Sunlit
Object was in daylight at epoch
Visualization orbit readout
Latitude
Unknown
Longitude
Unknown
Altitude
Unknown
Speed
Unknown
Apparent Right ascension
Unknown
Apparent Declination
Unknown
Sunlit
N/A
Visualization observer readout
Local Sidereal Time
15:54:06
Azimuth
Unknown
Elevation
Unknown
Doppler factor
Unknown
Orbital elements
Apogee altitude
36,064.775 km
Perigee altitude
35,765.289 km
Semi-major axis
42,293.169 km
Eccentricity
0.00354
Inclination
2.5246°
RAAN
108.5209°
Arg. of periapsis
83.6352°
True anomaly
276.39462°
Mean anomaly
276.7977°
Eccentric anomaly
276.59618°
Mean motion
0.24954 °/min
Orbital period
1,442.66 mins
BSTAR
0
Loading maneuver chart data...
Computing Atmospheric mass density...
Loading historical data...
Loading historical data...
Loading historical data...
Loading historical data...
Loading historical data...
Loading historical data...
Loading historical data...

Documentation

Showing up to 5 results
|